EN

Hourly Weather Aalst

Today, 13 June, Sunday

Time Temperature Precipitation Wind Pressure Humidity
00:00 +12°C° 0 mm 2 mps 768 mmHg 80%
01:00 +11°C° 0 mm 1 mps 768 mmHg 80%
02:00 +11°C° 0 mm 1 mps 768 mmHg 81%
03:00 +10°C° 0 mm 1 mps 768 mmHg 81%
04:00 +12°C° 0 mm 1 mps 768 mmHg 76%
05:00 +13°C° 0 mm 1 mps 769 mmHg 71%
06:00 +14°C° 0 mm 1 mps 769 mmHg 67%
07:00 +16°C° 0 mm 1 mps 769 mmHg 61%
08:00 +18°C° 0 mm 1 mps 769 mmHg 56%
09:00 +19°C° 0 mm 2 mps 769 mmHg 50%
10:00 +20°C° 0 mm 2 mps 769 mmHg 48%
11:00 +21°C° 0 mm 2 mps 769 mmHg 46%
12:00 +24°C° 0 mm 2 mps 769 mmHg 44%
13:00 +24°C° 0 mm 2 mps 768 mmHg 43%
14:00 +24°C° 0 mm 2 mps 768 mmHg 43%
15:00 +25°C° 0 mm 2 mps 767 mmHg 42%
16:00 +25°C° 0 mm 2 mps 767 mmHg 46%
17:00 +24°C° 0 mm 2 mps 767 mmHg 51%
18:00 +24°C° 0 mm 2 mps 767 mmHg 55%
19:00 +21°C° 0 mm 2 mps 767 mmHg 60%
20:00 +19°C° 0 mm 2 mps 767 mmHg 66%
21:00 +16°C° 0 mm 2 mps 767 mmHg 71%
22:00 +16°C° 0 mm 2 mps 767 mmHg 72%
23:00 +15°C° 0 mm 1 mps 766 mmHg 73%

Tomorrow, 14 June, Monday

Time Temperature Precipitation Wind Pressure Humidity
00:00 +15°C° 0 mm 1 mps 766 mmHg 74%
01:00 +14°C° 0 mm 1 mps 766 mmHg 74%
02:00 +14°C° 0 mm 1 mps 766 mmHg 74%
03:00 +13°C° 0 mm 2 mps 765 mmHg 74%
04:00 +15°C° 0 mm 1 mps 765 mmHg 70%
05:00 +16°C° 0 mm 1 mps 765 mmHg 67%
06:00 +18°C° 0 mm 1 mps 765 mmHg 63%
07:00 +19°C° 0 mm 2 mps 765 mmHg 59%
08:00 +21°C° 0 mm 2 mps 765 mmHg 54%
09:00 +24°C° 0 mm 2 mps 765 mmHg 49%
10:00 +25°C° 0 mm 2 mps 764 mmHg 46%
11:00 +26°C° 0 mm 2 mps 764 mmHg 43%
12:00 +28°C° 0 mm 2 mps 764 mmHg 40%
13:00 +28°C° 0 mm 2 mps 763 mmHg 40%
14:00 +28°C° 0 mm 2 mps 763 mmHg 40%
15:00 +28°C° 0 mm 2 mps 763 mmHg 40%
16:00 +27°C° 0 mm 2 mps 763 mmHg 46%
17:00 +26°C° 0 mm 3 mps 763 mmHg 51%
18:00 +25°C° 0 mm 3 mps 763 mmHg 57%
19:00 +22°C° 0 mm 3 mps 763 mmHg 64%
20:00 +20°C° 0 mm 3 mps 763 mmHg 71%
21:00 +18°C° 0 mm 3 mps 764 mmHg 78%
22:00 +17°C° 0 mm 2 mps 764 mmHg 81%
23:00 +17°C° 0 mm 2 mps 764 mmHg 84%

Day after tomorrow, 15 June, Tuesday

Time Temperature Precipitation Wind Pressure Humidity
00:00 +16°C° 0 mm 2 mps 764 mmHg 86%
01:00 +16°C° 0 mm 2 mps 764 mmHg 87%
02:00 +16°C° 0 mm 2 mps 764 mmHg 88%
03:00 +16°C° 0 mm 2 mps 764 mmHg 89%
04:00 +16°C° 0 mm 2 mps 764 mmHg 87%
05:00 +17°C° 0 mm 2 mps 764 mmHg 84%
06:00 +18°C° 0 mm 2 mps 764 mmHg 82%
07:00 +19°C° 0 mm 2 mps 764 mmHg 79%
08:00 +20°C° 0 mm 3 mps 764 mmHg 76%
09:00 +20°C° 0 mm 3 mps 764 mmHg 73%
10:00 +21°C° 0 mm 3 mps 764 mmHg 70%
11:00 +22°C° 0 mm 3 mps 764 mmHg 67%
12:00 +24°C° 0 mm 3 mps 764 mmHg 64%
13:00 +25°C° 0 mm 3 mps 763 mmHg 62%
14:00 +25°C° 0 mm 3 mps 763 mmHg 60%
15:00 +26°C° 0 mm 2 mps 763 mmHg 58%
16:00 +25°C° 0 mm 3 mps 762 mmHg 61%
17:00 +24°C° 0 mm 3 mps 762 mmHg 64%
18:00 +24°C° 0 mm 3 mps 762 mmHg 68%
19:00 +21°C° 0 mm 3 mps 762 mmHg 72%
20:00 +20°C° 0 mm 3 mps 762 mmHg 76%
21:00 +18°C° 0 mm 2 mps 762 mmHg 80%
22:00 +18°C° 0 mm 2 mps 762 mmHg 82%
23:00 +17°C° 0 mm 2 mps 761 mmHg 84%

16 June, Wednesday

Time Temperature Precipitation Wind Pressure Humidity
00:00 +17°C° 0 mm 2 mps 761 mmHg 85%
01:00 +17°C° 0 mm 2 mps 761 mmHg 86%
02:00 +16°C° 0 mm 2 mps 761 mmHg 86%
03:00 +16°C° 0 mm 2 mps 760 mmHg 87%
04:00 +17°C° 0 mm 2 mps 760 mmHg 83%
05:00 +19°C° 0 mm 2 mps 760 mmHg 79%
06:00 +20°C° 0 mm 2 mps 759 mmHg 75%
07:00 +23°C° 0 mm 2 mps 759 mmHg 70%
08:00 +25°C° 0 mm 2 mps 759 mmHg 65%
09:00 +27°C° 0 mm 2 mps 759 mmHg 59%
10:00 +28°C° 0 mm 2 mps 759 mmHg 55%
11:00 +29°C° 0 mm 2 mps 758 mmHg 51%
12:00 +30°C° 0 mm 2 mps 758 mmHg 47%
13:00 +31°C° 0 mm 2 mps 758 mmHg 45%
14:00 +31°C° 0 mm 2 mps 757 mmHg 44%
15:00 +33°C° 0 mm 3 mps 757 mmHg 42%
16:00 +31°C° 0 mm 2 mps 757 mmHg 46%
17:00 +31°C° 0 mm 2 mps 757 mmHg 50%
18:00 +30°C° 0 mm 2 mps 756 mmHg 54%
19:00 +28°C° 0 mm 1 mps 756 mmHg 60%
20:00 +26°C° 0 mm 1 mps 756 mmHg 66%
21:00 +24°C° 0 mm 1 mps 756 mmHg 72%
22:00 +23°C° 0 mm 1 mps 756 mmHg 74%
23:00 +23°C° 0 mm 2 mps 756 mmHg 75%

17 June, Thursday

Time Temperature Precipitation Wind Pressure Humidity
00:00 +21°C° 0 mm 2 mps 756 mmHg 77%
01:00 +21°C° 0 mm 2 mps 756 mmHg 80%
02:00 +21°C° 0 mm 2 mps 755 mmHg 82%
03:00 +20°C° 0 mm 2 mps 755 mmHg 85%
04:00 +21°C° 0.1 mm 2 mps 755 mmHg 84%
05:00 +23°C° 0.1 mm 2 mps 755 mmHg 84%
06:00 +23°C° 0.1 mm 1 mps 755 mmHg 83%
07:00 +25°C° 0.1 mm 2 mps 755 mmHg 79%
08:00 +26°C° 0.1 mm 3 mps 755 mmHg 75%
09:00 +27°C° 0.1 mm 4 mps 756 mmHg 71%
10:00 +28°C° 0.1 mm 4 mps 756 mmHg 67%
11:00 +29°C° 0.1 mm 4 mps 756 mmHg 63%
12:00 +29°C° 0.1 mm 4 mps 756 mmHg 60%
13:00 +30°C° 0 mm 4 mps 756 mmHg 58%
14:00 +30°C° 0 mm 3 mps 756 mmHg 55%
15:00 +30°C° 0 mm 3 mps 756 mmHg 53%
16:00 +30°C° 0 mm 3 mps 756 mmHg 57%
17:00 +29°C° 0 mm 2 mps 756 mmHg 61%
18:00 +29°C° 0 mm 2 mps 756 mmHg 65%
19:00 +27°C° 0 mm 2 mps 757 mmHg 70%
20:00 +25°C° 0 mm 2 mps 757 mmHg 76%
21:00 +24°C° 0 mm 2 mps 758 mmHg 82%
22:00 +23°C° 0.1 mm 2 mps 757 mmHg 85%
23:00 +21°C° 0.1 mm 2 mps 757 mmHg 88%

18 June, Friday

Time Temperature Precipitation Wind Pressure Humidity
00:00 +20°C° 0.1 mm 2 mps 757 mmHg 91%
01:00 +21°C° 0.7 mm 1 mps 757 mmHg 93%
02:00 +21°C° 0.7 mm 1 mps 757 mmHg 95%
03:00 +21°C° 0.7 mm 1 mps 757 mmHg 96%
04:00 +21°C° 0.2 mm 1 mps 757 mmHg 95%
05:00 +22°C° 0.2 mm 1 mps 757 mmHg 94%
06:00 +22°C° 0.2 mm 1 mps 757 mmHg 93%
07:00 +23°C° 0.1 mm 2 mps 757 mmHg 90%
08:00 +23°C° 0.1 mm 2 mps 757 mmHg 87%
09:00 +24°C° 0.1 mm 2 mps 757 mmHg 83%
10:00 +25°C° 0.1 mm 4 mps 757 mmHg 74%
11:00 +27°C° 0.1 mm 5 mps 757 mmHg 65%
12:00 +29°C° 0.1 mm 7 mps 756 mmHg 56%
13:00 +29°C° 0.1 mm 7 mps 756 mmHg 56%
14:00 +28°C° 0.1 mm 8 mps 756 mmHg 56%
15:00 +28°C° 0.1 mm 9 mps 756 mmHg 56%
16:00 +26°C° 0 mm 10 mps 756 mmHg 62%
17:00 +23°C° 0 mm 10 mps 756 mmHg 68%
18:00 +19°C° 0 mm 10 mps 757 mmHg 74%
19:00 +19°C° 0 mm 9 mps 757 mmHg 76%
20:00 +18°C° 0 mm 8 mps 757 mmHg 77%
21:00 +17°C° 0 mm 7 mps 758 mmHg 79%
22:00 +17°C° 0 mm 7 mps 758 mmHg 81%
23:00 +17°C° 0 mm 6 mps 758 mmHg 82%
Show more